Regional Weather Roundup
Issued by NWS

Home | Current Version | Previous Version | Graphics & Text | Print | Product List | Glossary On
Versions: 1 2 3 4 5 6 7 8 9 10 11 12 13 14 15 16 17 18 19 20 21 22 23 24 25 26 27 28 29 30 31 32 33 34 35 36 37 38 39 40 41 42 43 44 45 46 47 48 49 50
000
ASUS43 KLOT 240308
RWRIL

ILLINOIS REGIONAL WEATHER ROUNDUP
NATIONAL WEATHER SERVICE CHICAGO/ROMEOVILLE IL
900 PM CST TUE JAN 23 2018

NOTE: "FAIR" INDICATES FEW OR NO CLOUDS BELOW 12,000 FEET WITH NO
SIGNIFICANT WEATHER AND/OR OBSTRUCTIONS TO VISIBILITY.

* THESE STATIONS ARE NOT UNDER NWS QUALITY CONTROL. THEY ALSO MAY NOT
  REPORT WEATHER SUCH AS PRECIPITATION OR FOG.

ILZ001-002-007-009-015-016-024-240400-
NORTHWEST ILLINOIS

CITY           SKY/WX    TMP DP  RH WIND       PRES   REMARKS
MOLINE         CLOUDY    27  20  75 NW13      30.18R WCI  16
STERLING*      CLOUDY    26  23  88 W6        30.17  WCI  19
SAVANNA*       CLOUDY    26  21  83 NW8       30.17S WCI  17
$$

ILZ003-004-008-010-011-017-018-240400-
NORTH CENTRAL ILLINOIS

CITY           SKY/WX    TMP DP  RH WIND       PRES   REMARKS
ROCKFORD       CLOUDY    28  23  81 NW7       30.15R WCI  21
FREEPORT*      CLOUDY    26  22  85 W7        30.16R WCI  19
ROCHELLE*      CLOUDY    28  25  89 NW9       30.15R WCI  19
DE KALB*       CLOUDY    28  25  87 N5        30.14R WCI  23
PERU*          CLOUDY    26  23  87 W9        30.17S WCI  17
$$

ILZ005-006-012>014-019>023-240400-
NORTHEAST ILLINOIS

CITY           SKY/WX    TMP DP  RH WIND       PRES   REMARKS
CHICAGO-OHARE  CLOUDY    29  21  72 NW12      30.12R WCI  19
CHICAGO-MIDWAY CLOUDY    30  22  72 NW8       30.13R WCI  22
AURORA         CLOUDY    29  25  85 NW8       30.14R WCI  21
LANSING*       CLOUDY    29  25  82 CALM      30.14R
JOLIET*        CLOUDY    31  26  82 N6        30.15R WCI  25
WAUKEGAN       CLOUDY    27  24  89 W3        30.11R
DUPAGE AIRPORT CLOUDY    28  24  85 W10       30.13R WCI  19
KANKAKEE*      CLOUDY   N/A N/A N/A NW9       30.14S
WHEELING       CLOUDY    29  22  75 NW8       30.14R WCI  21
MORRIS*        CLOUDY    31  26  84 N5        30.14R WCI  26
ROMEOVILLE*    CLOUDY    28  24  84 N6        30.14R WCI  22
NORTHERLY ISL    N/A     29  22  75 NW3         N/A
$$

LMZ740>746-240400-
SOUTHERN LAKE MICHIGAN

STATION/POSITION SKY/WX   TEMP    WIND        PRES    VSBY  WAVE
                          AIR SEA DIR/SP/G                  HT/PER
                          (F)     (DEG/KT/KT) (MB)    (MI)  (FT/S)
HARRISON CRIB              30     320/ 11/ 12   N/A
BURNHAM HARBOR             29     280/ 10/ 11   N/A
CALUMET HARBOR             29     290/  7/ 10 1019.5R
BURNS HARBOR               31     310/ 11/ 14 1020.3R
MICHIGAN CITY              31     280/ 18/ 20   N/A
$$

ILZ025>027-034>036-040-047-049-050-058-095>099-240400-
WEST-CENTRAL ILLINOIS

CITY           SKY/WX    TMP DP  RH WIND       PRES   REMARKS
QUINCY         CLOUDY    29  23  78 NW14      30.22R WCI  18
GALESBURG*     CLOUDY    29  23  78 W13G18    30.19R WCI  19
MACOMB*        CLOUDY    28  23  80 NW14G22   30.23R WCI  17
JACKSONVILLE*  CLOUDY    30  24  79 W12G17    30.22R WCI  20
PITTSFIELD*    CLOUDY    31  25  78 NW10      30.23R WCI  23
$$

ILZ028>032-037-038-041>044-048-051>054-059>061-240400-
CENTRAL ILLINOIS

CITY           SKY/WX    TMP DP  RH WIND       PRES   REMARKS
PONTIAC        CLOUDY    29  28  97 W12       30.17R WCI  19
BLOOMINGTON    CLOUDY    28  23  81 W15       30.17R WCI  16
DECATUR        CLOUDY    30  25  81 NW13G20   30.18S WCI  20
PEORIA         CLOUDY    30  22  72 NW8       30.18R WCI  22
LACON*         CLOUDY    28  23  83 NW8       30.18R WCI  19
LINCOLN*       CLOUDY    31  25  78 W6        30.19R WCI  26
SPRINGFIELD    CLOUDY    32  24  72 NW12      30.21R WCI  23
TAYLORVILLE    CLOUDY    31  25  78 W7        30.21R WCI  24
$$

ILZ033-039-045-046-055>057-062-063-240400-
EAST-CENTRAL ILLINOIS

CITY           SKY/WX    TMP DP  RH WIND       PRES   REMARKS
CHAMPAIGN      CLOUDY    31  27  85 W14       30.16R WCI  21
DANVILLE*      CLOUDY    30  27  86 NW16      30.13R WCI  19
RANTOUL*       CLOUDY    32  29  88 NW9G16    30.16R WCI  24
MATTOON        CLOUDY    31  27  85 NW9       30.17S WCI  23
PARIS*         CLOUDY    31  30  93 NW9       30.18R WCI  23
$$

ILZ079-100>102-240400-
SOUTHWEST ILLINOIS

CITY           SKY/WX    TMP DP  RH WIND       PRES   REMARKS
ALTON          CLOUDY    34  28  80 W12       30.23R WCI  25
BELLEVILLE     CLOUDY    35  25  65 W8        30.22R WCI  29
CAHOKIA*       CLOUDY    35  26  69 NW12G17   30.23R WCI  27
SPARTA*        CLOUDY    34  27  76 W5        30.25S WCI  30
$$

ILZ064>066-069>071-074>076-080>082-084>086-088>090-092>094-240400-
SOUTH-CENTRAL ILLINOIS

CITY           SKY/WX    TMP DP  RH WIND       PRES   REMARKS
CARBONDALE     CLOUDY    37  28  70 NW7       30.24R WCI  32
CAIRO*         FAIR      29  28  93 CALM      30.26R
EFFINGHAM*     CLOUDY    32  28  83 W9G20     30.22R WCI  24
MARION         CLOUDY    36  28  73 CALM      30.25R
MT. VERNON     CLOUDY    34  27  75 VRB3      30.23S
CENTRALIA*     CLOUDY    34  29  81 CALM      30.22S
SALEM*         CLOUDY    35  27  73 NW9       30.22R WCI  27
METROPOLIS*    CLOUDY    37  29  74 CALM      30.26R
$$

ILZ067-068-072-073-078-083-087-091-240400-
SOUTHEAST ILLINOIS

CITY           SKY/WX    TMP DP  RH WIND       PRES   REMARKS
LAWRENCEVILLE  CLOUDY    34  29  82 W13       30.20S WCI  25
FLORA*         CLOUDY    35  29  79 NW7       30.22R WCI  29
FAIRFIELD*     CLOUDY    34  29  82 CALM      30.22R
HARRISBURG*    CLOUDY    35  31  83 CALM      30.24S
ROBINSON*      CLOUDY    32  28  86 NW8G18    30.20S WCI  25
CARMI*         CLOUDY    34  30  86 W6        30.23R WCI  29
$$

ABBREVIATIONS USED IN REMARKS
   TC - TEMPERATURE IN CELSIUS
  WCI - WIND CHILL INDEX
   HX - HEAT INDEX
  VSB - VISIBILITY
$$




USA.gov is the U.S. government's official web portal to all federal, state and local government web resources and services.